FW7220 Weather Reports


time (UTC)temp
C
wind
direction
speed
KPH
gust
KPH
rain 1hr
cm
rain 24hr
cm
rain mn
cm
humidity
%
barometer
mb
20260505153110 23 257 6.4 16.1 0.00 0.00 0.00 82 1008.2
20260505152544 23 259 4.8 17.7 0.00 0.00 0.00 82 1008.2
20260505152048 23 271 8.0 17.7 0.00 0.00 0.00 82 1008.2
20260505151556 22 260 4.8 16.1 0.00 0.00 0.00 82 1008.2
20260505151044 22 265 6.4 16.1 0.00 0.00 0.00 82 1008.2
20260505150546 22 290 4.8 17.7 0.00 0.00 0.00 82 1008.1
20260505150113 22 254 8.0 17.7 0.00 0.00 0.00 82 1008.2
20260505140544 22 287 4.8 14.5 0.00 0.00 0.00 82 1008.3
20260505140105 22 295 8.0 14.5 0.00 0.00 0.00 82 1008.3
20260505124608 21 267 8.0 16.1 0.00 0.00 0.00 83 1007.8
20260505124049 21 236 3.2 12.9 0.00 0.00 0.00 83 1007.7
20260505123542 21 278 1.6 12.9 0.00 0.00 0.00 83 1007.8
20260505123110 21 0 3.2 12.9 0.00 0.00 0.00 83 1007.7
20260505122544 21 266 3.2 14.5 0.00 0.00 0.00 84 1007.6
20260505122043 21 0 6.4 17.7 0.00 0.00 0.00 84 1007.7
20260505121552 21 0 8.0 17.7 0.00 0.00 0.00 84 1007.6
20260505121049 21 284 6.4 16.1 0.00 0.00 0.00 84 1007.5
20260505120546 21 312 3.2 27.4 0.00 0.00 0.00 83 1007.3
20260505120053 21 257 4.8 27.4 0.00 0.00 0.00 83 1007.2
20260505115543 21 276 6.4 14.5 0.00 0.00 0.00 83 1007.3
20260505115044 21 266 1.6 16.1 0.00 0.00 0.00 83 1007.4
20260505114601 21 275 6.4 20.9 0.00 0.00 0.00 83 1007.3
20260505114044 21 265 6.4 20.9 0.00 0.00 0.00 83 1007.2
20260505113552 21 0 8.0 20.9 0.00 0.00 0.00 83 1007.2
20260505113055 21 269 6.4 17.7 0.00 0.00 0.00 83 1007.3
20260505112548 21 276 9.7 17.7 0.00 0.00 0.00 83 1007.1
20260505112048 21 229 8.0 17.7 0.00 0.00 0.00 83 1007.1
20260505111559 21 271 8.0 19.3 0.00 0.00 0.00 83 1007.0
20260505111048 21 224 8.0 19.3 0.00 0.00 0.00 83 1007.2
20260505110547 21 282 9.7 22.5 0.00 0.00 0.00 83 1007.2
20260505102048 21 323 3.2 19.3 0.00 0.00 0.00 83 1007.4
20260505101559 21 285 6.4 19.3 0.00 0.00 0.00 83 1007.1
20260505101048 21 263 6.4 16.1 0.00 0.00 0.00 83 1007.1
20260505100548 21 242 6.4 16.1 0.00 0.00 0.00 83 1007.1
20260505100104 21 263 4.8 20.9 0.00 0.00 0.00 83 1007.2
20260505095545 21 261 6.4 20.9 0.00 0.00 0.00 83 1007.2
20260505095048 21 272 9.7 20.9 0.00 0.00 0.00 83 1007.2
20260505094552 21 210 6.4 19.3 0.00 0.00 0.00 83 1007.2
20260505094044 21 249 1.6 19.3 0.00 0.00 0.00 83 1007.2
20260505093546 21 271 6.4 19.3 0.00 0.00 0.00 83 1007.2
20260505093056 21 278 6.4 16.1 0.00 0.00 0.00 83 1007.1
20260505092552 21 258 6.4 16.1 0.00 0.00 0.00 83 1007.2
20260505092047 21 262 4.8 14.5 0.00 0.00 0.00 83 1007.2
20260505091553 21 276 4.8 17.7 0.00 0.00 0.00 82 1007.2
20260505091048 21 261 8.0 17.7 0.00 0.00 0.00 83 1007.3
20260505090547 21 283 3.2 17.7 0.00 0.00 0.00 83 1007.4
20260505090106 21 265 4.8 20.9 0.00 0.00 0.00 83 1007.5
20260505085548 21 0 9.7 22.5 0.00 0.00 0.00 83 1007.5
20260505085051 21 289 8.0 22.5 0.00 0.00 0.00 83 1007.5
20260505084550 20 226 6.4 16.1 0.00 0.00 0.00 83 1007.6
20260505084047 20 269 6.4 16.1 0.00 0.00 0.00 82 1007.8
20260505083548 20 262 8.0 16.1 0.00 0.00 0.00 82 1007.9
20260505083107 20 262 6.4 17.7 0.00 0.00 0.00 82 1008.0
20260505082548 20 0 6.4 17.7 0.00 0.00 0.00 82 1008.0
20260505082047 20 266 6.4 16.1 0.00 0.00 0.00 82 1007.9
20260505081556 21 266 6.4 16.1 0.00 0.00 0.00 82 1007.9
20260505081047 21 259 1.6 14.5 0.00 0.00 0.00 82 1008.1
20260505080546 21 0 6.4 14.5 0.00 0.00 0.00 82 1008.1
20260505080056 21 264 6.4 14.5 0.00 0.00 0.00 82 1008.1
20260505075547 21 266 4.8 17.7 0.00 0.00 0.00 82 1008.1
20260505075047 21 279 4.8 17.7 0.00 0.00 0.00 82 1008.2
20260505074549 21 255 4.8 19.3 0.00 0.00 0.00 81 1008.3
20260505074053 21 256 4.8 19.3 0.00 0.00 0.00 81 1008.5
20260505073551 21 290 1.6 14.5 0.00 0.00 0.00 81 1008.6
20260505073058 21 252 4.8 16.1 0.00 0.00 0.00 81 1008.5
20260505072548 21 0 4.8 17.7 0.00 0.00 0.00 81 1008.6
20260505072048 21 279 4.8 17.7 0.00 0.00 0.00 81 1008.5
20260505071557 21 262 4.8 14.5 0.00 0.00 0.00 81 1008.8
20260505071045 21 284 4.8 11.3 0.00 0.00 0.00 81 1008.8
20260505070549 21 295 3.2 14.5 0.00 0.00 0.00 81 1008.8
20260505070057 21 263 6.4 14.5 0.00 0.00 0.00 81 1008.8
20260505065547 21 255 3.2 12.9 0.00 0.00 0.00 80 1008.8
20260505065046 21 278 4.8 14.5 0.00 0.00 0.00 80 1009.0
20260505064549 21 280 3.2 14.5 0.00 0.00 0.00 80 1009.0
20260505064047 21 243 3.2 19.3 0.00 0.00 0.00 80 1008.9
20260505063548 21 260 4.8 19.3 0.00 0.00 0.00 80 1008.9
20260505063054 21 282 6.4 19.3 0.00 0.00 0.00 80 1009.0
20260505062547 21 264 3.2 14.5 0.00 0.00 0.00 80 1008.9
20260505062046 21 281 4.8 17.7 0.00 0.00 0.00 79 1009.0
20260505061551 21 246 6.4 17.7 0.00 0.00 0.00 79 1009.0
20260505061048 21 269 8.0 17.7 0.00 0.00 0.00 79 1009.1
20260505060550 21 283 4.8 16.1 0.00 0.00 0.00 79 1009.1
20260505060059 21 258 6.4 16.1 0.00 0.00 0.00 79 1009.2
20260505055547 21 273 4.8 16.1 0.00 0.00 0.00 78 1009.1
20260505055048 21 276 8.0 16.1 0.00 0.00 0.00 78 1009.0
20260505054556 21 255 6.4 16.1 0.00 0.00 0.00 78 1009.1
20260505054047 21 0 6.4 14.5 0.00 0.00 0.00 78 1009.1
20260505053548 21 264 3.2 16.1 0.00 0.00 0.00 78 1009.0
20260505053053 22 273 3.2 17.7 0.00 0.00 0.00 78 1009.0
20260505052544 22 0 6.4 17.7 0.00 0.00 0.00 78 1009.0
20260505052045 22 258 4.8 17.7 0.00 0.00 0.00 78 1008.8
20260505051550 22 0 6.4 16.1 0.00 0.00 0.00 78 1008.8
20260505051046 22 258 4.8 17.7 0.00 0.00 0.00 77 1008.8
20260505050544 22 224 4.8 17.7 0.00 0.00 0.00 77 1009.0
20260505050126 22 265 6.4 16.1 0.00 0.00 0.00 77 1008.9
20260505041603 22 266 3.2 14.5 0.00 0.00 0.00 76 1008.9
20260505041046 22 233 3.2 14.5 0.00 0.00 0.00 76 1008.9
20260505040549 22 230 4.8 14.5 0.00 0.00 0.00 76 1008.9
20260505040058 22 0 4.8 14.5 0.00 0.00 0.00 76 1008.9
20260505035548 22 246 3.2 14.5 0.00 0.00 0.00 76 1009.1
20260505035044 22 257 4.8 14.5 0.00 0.00 0.00 75 1009.1
20260505034555 22 260 3.2 11.3 0.00 0.00 0.00 75 1009.1
20260505034047 22 265 3.2 11.3 0.00 0.00 0.00 75 1009.2
20260505033549 22 0 3.2 11.3 0.00 0.00 0.00 75 1009.2
20260505033053 22 217 3.2 11.3 0.00 0.00 0.00 75 1009.1
20260505032548 22 238 3.2 9.7 0.00 0.00 0.00 75 1009.1
20260505032050 22 233 3.2 11.3 0.00 0.00 0.00 74 1009.1
20260505031550 22 267 3.2 11.3 0.00 0.00 0.00 74 1009.0
20260505031047 22 243 1.6 11.3 0.00 0.00 0.00 74 1009.1
20260505030544 22 0 1.6 8.0 0.00 0.00 0.00 74 1009.2
20260505030051 22 237 0.0 9.7 0.00 0.00 0.00 74 1009.0
20260505025544 22 245 1.6 9.7 0.00 0.00 0.00 74 1009.0
20260505025045 22 217 0.0 9.7 0.00 0.00 0.00 73 1008.9
20260505024550 22 226 3.2 9.7 0.00 0.00 0.00 73 1008.9
20260505024046 22 0 0.0 8.0 0.00 0.00 0.00 73 1008.8
20260505023548 22 236 0.0 11.3 0.00 0.00 0.00 73 1008.7
20260505023056 22 0 1.6 11.3 0.00 0.00 0.00 72 1008.7
20260505022547 22 0 0.0 4.8 0.00 0.00 0.00 72 1008.8
20260505022048 22 0 0.0 6.4 0.00 0.00 0.00 72 1008.7
20260505021555 22 0 0.0 6.4 0.00 0.00 0.00 72 1008.9
20260505021046 22 0 0.0 6.4 0.00 0.00 0.00 72 1008.8
20260505020544 23 0 0.0 4.8 0.00 0.00 0.00 71 1008.9
20260505020055 23 0 0.0 4.8 0.00 0.00 0.00 71 1008.8
20260505015545 23 0 0.0 8.0 0.00 0.00 0.00 71 1008.7
20260505015045 23 234 0.0 8.0 0.00 0.00 0.00 70 1008.7
20260505014605 23 0 1.6 8.0 0.00 0.00 0.00 70 1008.8
20260505014046 23 0 0.0 6.4 0.00 0.00 0.00 70 1008.8
20260505013547 23 0 0.0 6.4 0.00 0.00 0.00 69 1008.7
20260505013053 23 0 0.0 9.7 0.00 0.00 0.00 69 1008.8
20260505012548 23 0 0.0 9.7 0.00 0.00 0.00 68 1008.8
20260505012047 23 214 0.0 9.7 0.00 0.00 0.00 68 1008.8
20260505011605 24 269 3.2 11.3 0.00 0.00 0.00 68 1008.7
20260505011047 24 272 1.6 11.3 0.00 0.00 0.00 68 1008.6
20260505010548 24 247 1.6 11.3 0.00 0.00 0.00 67 1008.6
20260505010059 24 274 3.2 12.9 0.00 0.00 0.00 66 1008.7
20260505005548 24 198 1.6 12.9 0.00 0.00 0.00 66 1008.5
20260505005046 25 258 4.8 17.7 0.00 0.00 0.00 66 1008.6
20260505004559 25 0 1.6 17.7 0.00 0.00 0.00 65 1008.7
20260505004046 25 0 6.4 17.7 0.00 0.00 0.00 65 1008.6
20260505003547 25 240 4.8 17.7 0.00 0.00 0.00 65 1008.5
20260505003051 25 247 8.0 17.7 0.00 0.00 0.00 64 1008.6
20260505002551 25 265 4.8 16.1 0.00 0.00 0.00 64 1008.7
20260505002044 25 260 3.2 17.7 0.00 0.00 0.00 64 1008.7
20260505001604 25 248 4.8 17.7 0.00 0.00 0.00 64 1008.8
20260505001046 25 255 3.2 11.3 0.00 0.00 0.00 64 1008.8
20260505000546 25 0 3.2 12.9 0.00 0.00 0.00 64 1008.9
20260505000126 25 226 4.8 12.9 0.00 0.00 0.00 63 1008.9
20260504235547 26 0 3.2 17.7 0.00 0.00 0.00 63 1009.0
20260504235047 26 258 3.2 17.7 0.00 0.00 0.00 62 1009.1
20260504234611 26 260 6.4 17.7 0.00 0.00 0.00 61 1009.1
20260504234046 26 236 3.2 17.7 0.00 0.00 0.00 62 1009.1
20260504233551 26 233 4.8 17.7 0.00 0.00 0.00 61 1009.2
20260504233050 26 257 4.8 19.3 0.00 0.00 0.00 61 1009.3
20260504232545 26 0 4.8 20.9 0.00 0.00 0.00 61 1009.3
20260504232046 26 0 8.0 20.9 0.00 0.00 0.00 60 1009.4
20260504231548 26 274 4.8 17.7 0.00 0.00 0.00 60 1009.5
20260504231046 26 260 3.2 17.7 0.00 0.00 0.00 61 1009.4
20260504230547 26 264 6.4 17.7 0.00 0.00 0.00 61 1009.4
20260504230048 26 210 4.8 20.9 0.00 0.00 0.00 60 1009.5
20260504225547 26 290 6.4 20.9 0.00 0.00 0.00 60 1009.4
20260504225050 26 264 8.0 17.7 0.00 0.00 0.00 59 1009.6
20260504224605 26 0 6.4 22.5 0.00 0.00 0.00 60 1009.6
20260504224047 26 288 6.4 22.5 0.00 0.00 0.00 60 1009.5
20260504223546 27 257 11.3 22.5 0.00 0.00 0.00 58 1009.7
20260504223053 27 273 4.8 24.1 0.00 0.00 0.00 59 1009.7
20260504222548 27 213 9.7 24.1 0.00 0.00 0.00 58 1009.7
20260504222048 27 262 9.7 25.7 0.00 0.00 0.00 58 1009.7
20260504221552 27 231 6.4 25.7 0.00 0.00 0.00 58 1009.5
20260504221047 27 265 9.7 25.7 0.00 0.00 0.00 58 1009.5
20260504220547 27 243 8.0 25.7 0.00 0.00 0.00 57 1009.5
20260504220053 27 266 11.3 25.7 0.00 0.00 0.00 56 1009.6
20260504215547 27 297 9.7 22.5 0.00 0.00 0.00 58 1009.7
20260504215044 27 268 4.8 22.5 0.00 0.00 0.00 57 1009.7
20260504214550 27 0 9.7 22.5 0.00 0.00 0.00 56 1009.9
20260504214046 27 274 8.0 20.9 0.00 0.00 0.00 56 1010.2
20260504213547 27 274 11.3 22.5 0.00 0.00 0.00 55 1010.3
20260504213125 27 261 9.7 22.5 0.00 0.00 0.00 56 1010.3
20260504212547 27 239 8.0 19.3 0.00 0.00 0.00 56 1010.2
20260504212050 28 255 4.8 19.3 0.00 0.00 0.00 55 1010.3
20260504211554 28 248 9.7 22.5 0.00 0.00 0.00 55 1010.6
20260504211047 27 262 8.0 22.5 0.00 0.00 0.00 55 1010.4
20260504210544 28 290 12.9 22.5 0.00 0.00 0.00 53 1010.6
20260504210055 28 265 9.7 22.5 0.00 0.00 0.00 53 1010.8
20260504205548 28 264 9.7 22.5 0.00 0.00 0.00 54 1011.0
20260504205048 28 261 4.8 24.1 0.00 0.00 0.00 54 1011.0
20260504204553 28 263 11.3 24.1 0.00 0.00 0.00 53 1011.0
20260504204047 28 290 8.0 17.7 0.00 0.00 0.00 52 1011.2
20260504203550 28 240 8.0 20.9 0.00 0.00 0.00 53 1011.3
20260504203117 28 266 8.0 20.9 0.00 0.00 0.00 52 1011.3
20260504202547 28 279 8.0 20.9 0.00 0.00 0.00 52 1011.5
20260504202047 28 261 4.8 17.7 0.00 0.00 0.00 53 1011.4
20260504201552 28 276 9.7 17.7 0.00 0.00 0.00 52 1011.6
20260504201047 28 316 6.4 19.3 0.00 0.00 0.00 52 1011.5
20260504200547 28 240 8.0 20.9 0.00 0.00 0.00 51 1011.6
20260504200057 27 272 6.4 24.1 0.00 0.00 0.00 53 1011.7
20260504195548 27 278 6.4 24.1 0.00 0.00 0.00 52 1011.8
20260504195046 27 243 9.7 24.1 0.00 0.00 0.00 50 1012.1
20260504194602 27 231 8.0 17.7 0.00 0.00 0.00 50 1012.2
20260504194046 27 273 6.4 19.3 0.00 0.00 0.00 52 1012.3
20260504193549 27 235 8.0 19.3 0.00 0.00 0.00 51 1012.4
20260504193100 27 212 8.0 20.9 0.00 0.00 0.00 52 1012.5
20260504192546 27 255 9.7 22.5 0.00 0.00 0.00 52 1012.6
20260504192047 27 264 9.7 22.5 0.00 0.00 0.00 53 1012.6
20260504191555 27 271 8.0 25.7 0.00 0.00 0.00 52 1012.7
20260504191047 27 325 11.3 25.7 0.00 0.00 0.00 52 1013.0
20260504190550 27 243 11.3 20.9 0.00 0.00 0.00 50 1013.0
20260504190109 27 300 9.7 20.9 0.00 0.00 0.00 53 1013.1
20260504185545 27 250 11.3 20.9 0.00 0.00 0.00 51 1013.1
20260504185047 27 281 9.7 20.9 0.00 0.00 0.00 51 1013.1
20260504184600 27 269 6.4 22.5 0.00 0.00 0.00 52 1013.0
20260504184047 27 259 9.7 22.5 0.00 0.00 0.00 51 1013.1
20260504183549 27 264 8.0 22.5 0.00 0.00 0.00 50 1013.1
20260504183052 27 257 9.7 22.5 0.00 0.00 0.00 50 1013.1
20260504182546 27 261 8.0 19.3 0.00 0.00 0.00 51 1013.2
20260504182044 26 261 9.7 25.7 0.00 0.00 0.00 50 1013.2
20260504181555 26 262 11.3 25.7 0.00 0.00 0.00 50 1013.6
20260504181044 27 276 8.0 19.3 0.00 0.00 0.00 51 1013.5
20260504180546 26 229 8.0 19.3 0.00 0.00 0.00 51 1013.6
20260504180052 26 276 6.4 20.9 0.00 0.00 0.00 53 1013.8
20260504175548 26 285 9.7 20.9 0.00 0.00 0.00 51 1014.1
20260504175047 26 205 8.0 16.1 0.00 0.00 0.00 49 1014.1
20260504174601 26 229 8.0 19.3 0.00 0.00 0.00 50 1014.0
20260504174048 26 287 9.7 19.3 0.00 0.00 0.00 51 1014.2
20260504173547 26 263 8.0 20.9 0.00 0.00 0.00 49 1014.2
20260504173056 26 278 8.0 20.9 0.00 0.00 0.00 51 1014.2
20260504172546 26 256 9.7 19.3 0.00 0.00 0.00 49 1014.3
20260504172048 26 257 8.0 19.3 0.00 0.00 0.00 50 1014.3
20260504171552 26 274 6.4 22.5 0.00 0.00 0.00 54 1014.4
20260504171048 26 259 9.7 22.5 0.00 0.00 0.00 53 1014.4
20260504170547 25 265 9.7 22.5 0.00 0.00 0.00 51 1014.5